Tacoma Narrows, WA
on Friday, November 30, 2012

Friday
Previous Day Next Day
Daily Summary
 ActualAverageRecord
Temperature
Mean Temperature °F °F  
Max Temperature 57°F 46°F 57°F (2012)
Min Temperature 46°F 38°F 34°F (2007)
Degree Days
Heating Degree Days 14    
Growing Degree Days2 (Base °F )  
Moisture
Dew Point 45°F   
Average Humidity 84    
Maximum Humidity 93    
Minimum Humidity 59    
Precipitation
Precipitation 0.93 in in in ()
Wind
Wind Speed 6 mph   
Max Wind Speed 18 mph   
Max Gust Speed 36 mph   
Visibility 8 miles   
Events Rain   
Averages and records for this station are not official NWS values.
Key: T is trace of precipitation, MM is missing value
Source: NWS Daily Summary
Seasonal Weather Averages
Time(PST)TemperatureDew PointHumidity Pressure Visibility Wind DirectionWind SpeedGust SpeedPrecipitationEvents Conditions
12:53 AM 46.9°F 44.1°F 90% 29.43 in 8.0 miles ENE 3.5 mph - 0.09 in Rain Light Rain
1:53 AM 46.9°F 44.1°F 90% 29.42 in 10.0 miles Calm Calm - 0.02 in   Overcast
2:53 AM 48.0°F 44.1°F 86% 29.41 in 10.0 miles Calm Calm - 0.01 in Rain Light Rain
3:53 AM 48.0°F 44.1°F 86% 29.39 in 10.0 miles Calm Calm - 0.02 in Rain Light Rain
4:53 AM 46.0°F 44.1°F 93% 29.39 in 10.0 miles Calm Calm - 0.00 in   Mostly Cloudy
5:53 AM 46.9°F 44.1°F 90% 29.37 in 10.0 miles SE 3.5 mph - N/A   Mostly Cloudy
6:53 AM 50.0°F 44.1°F 80% 29.38 in 10.0 miles SSE 4.6 mph - 0.00 in   Overcast
7:53 AM 50.0°F 45.0°F 83% 29.41 in 9.0 miles SSE 9.2 mph 18.4 mph 0.02 in Rain Light Rain
8:53 AM 52.0°F 45.0°F 77% 29.42 in 10.0 miles South 11.5 mph - 0.00 in   Partly Cloudy
9:53 AM 54.0°F 44.1°F 69% 29.42 in 10.0 miles South 10.4 mph - N/A   Mostly Cloudy
10:53 AM 55.9°F 45.0°F 67% 29.42 in 10.0 miles South 15.0 mph 24.2 mph 0.00 in   Overcast
11:53 AM 57.0°F 43.0°F 59% 29.42 in 10.0 miles South 17.3 mph 35.7 mph 0.01 in   Overcast
12:53 PM 57.0°F 43.0°F 59% 29.42 in 10.0 miles South 18.4 mph 29.9 mph N/A   Mostly Cloudy
1:53 PM 54.0°F 46.0°F 75% 29.43 in 10.0 miles South 16.1 mph 21.9 mph 0.01 in Rain Light Rain
2:53 PM 53.1°F 46.0°F 77% 29.44 in 10.0 miles South 15.0 mph 24.2 mph 0.02 in Rain Light Rain
3:53 PM 51.8°F 46.4°F 82% 29.44 in 9.0 miles South 6.9 mph - N/A Rain Light Rain
4:53 PM 50.0°F 46.4°F 87% 29.45 in 5.0 miles South 12.7 mph 18.4 mph N/A Rain Light Rain
5:53 PM 48.9°F 46.0°F 90% 29.47 in 4.0 miles South 10.4 mph - 0.18 in Rain Rain
6:53 PM 48.0°F 46.0°F 93% 29.46 in 8.0 miles South 4.6 mph - 0.09 in Rain Light Rain
7:10 PM 48.2°F 46.4°F 93% 29.45 in 9.0 miles South 6.9 mph - 0.01 in Rain Light Rain
7:53 PM 48.0°F 46.0°F 93% 29.44 in 6.0 miles Calm Calm - 0.09 in Rain Light Rain
8:53 PM 48.9°F 46.0°F 90% 29.43 in 9.0 miles SSE 6.9 mph - 0.16 in Rain Light Rain
9:48 PM 48.2°F 46.4°F 93% 29.40 in 6.0 miles Calm Calm - 0.09 in Rain Rain
9:53 PM 48.2°F 46.4°F 93% 29.40 in 5.0 miles Calm Calm - N/A Rain Rain
10:17 PM 50.0°F 46.4°F 87% 29.40 in 5.0 miles SSE 9.2 mph - 0.07 in Rain Rain
10:39 PM 50.0°F 46.4°F 87% 29.42 in 6.0 miles South 12.7 mph 21.9 mph 0.16 in Rain Rain
10:51 PM 50.0°F 46.4°F 87% 29.42 in 6.0 miles South 16.1 mph - 0.20 in Rain Rain
10:53 PM 50.0°F 46.0°F 86% 29.41 in 6.0 miles South 16.1 mph - 0.20 in Rain Light Rain
11:04 PM 48.2°F 44.6°F 87% 29.41 in 10.0 miles South 13.8 mph - 0.01 in Rain Light Rain
11:44 PM 48.2°F 46.4°F 93% 29.41 in 10.0 miles South 5.8 mph - 0.01 in   Overcast
11:53 PM 48.9°F 46.0°F 90% 29.42 in 10.0 miles South 6.9 mph - 0.01 in   Overcast
Moon Phase
Nov. 30 Dec. 06 Dec. 13 Dec. 20 Dec. 28
Sunrise:07:35 AM (PST) Moon Rise:06:23 PM (PST)11/30
Sunset:04:22 PM (PST) Moon Set:09:11 AM (PST)11/30

Copyright © 2014 The Weather Underground, Inc.